Overview Statistics Trail Chart Weather Telemetry Raw packets
 

This is the latest recevied weather packets stored in our database for station/object LU3GHF-13. If no packets are shown the sender has not sent any weather packets the latest 10 day(s).

<< 11 12 13 14 15 16 17 >>
Time Temp. Humidity Pressure Rain* Wind** Luminosity Snow
1788444254 25° C 71% 1006.3 hPa - - - -
1788443644 24.44° C 75% 1006.5 hPa - - - -
1788443033 23.89° C 76% 1006.6 hPa - - - -
1788442429 23.33° C 77% 1006.7 hPa - - - -
1788441791 23.33° C 79% 1006.8 hPa - - - -
1788441132 22.78° C 79% 1006.7 hPa - - - -
1788440478 22.22° C 80% 1006.8 hPa - - - -
1788439835 21.67° C 81% 1006.8 hPa - - - -
1788439204 21.67° C 83% 1006.9 hPa - - - -
1788438594 21.11° C 85% 1006.8 hPa - - - -
1788437953 20.56° C 86% 1006.9 hPa - - - -
1788437333 20° C 87% 1006.9 hPa - - - -
1788436700 20° C 89% 1006.8 hPa - - - -
1788436051 19.44° C 89% 1006.6 hPa - - - -
1788435414 18.89° C 90% 1006.5 hPa - - - -
1788434809 18.89° C 90% 1006.6 hPa - - - -
1788434191 18.89° C 90% 1006.3 hPa - - - -
1788433571 18.33° C 90% 1006.2 hPa - - - -
1788432950 18.33° C 91% 1006.2 hPa - - - -
1788432325 18.33° C 90% 1006.1 hPa - - - -
1788431705 17.78° C 92% 1005.9 hPa - - - -
1788431093 18.33° C 91% 1005.6 hPa - - - -
1788430455 18.33° C 91% 1005.4 hPa - - - -
1788429828 18.33° C 91% 1005 hPa - - - -
1788429172 18.33° C 91% 1005 hPa - - - -

* Rain since midnight (hover to see other rain measurements)
** Current wind speed in m/s (hover to see current wind gust speed)